#datetime,building,power
2023-05-23T00:00:00,atd,17.62
2023-05-23T00:01:00,atd,22.05
2023-05-23T00:02:00,atd,25.58
2023-05-23T00:03:00,atd,25.31
2023-05-23T00:04:00,atd,21.30
2023-05-23T00:05:00,atd,18.45
2023-05-23T00:06:00,atd,17.95
2023-05-23T00:07:00,atd,17.02
2023-05-23T00:08:00,atd,16.19
2023-05-23T00:09:00,atd,15.51
2023-05-23T00:10:00,atd,18.88
2023-05-23T00:11:00,atd,21.35
2023-05-23T00:12:00,atd,20.09
2023-05-23T00:13:00,atd,20.83
2023-05-23T00:14:00,atd,21.26
2023-05-23T00:15:00,atd,24.01
2023-05-23T00:16:00,atd,24.02
2023-05-23T00:17:00,atd,21.68
2023-05-23T00:18:00,atd,20.17
2023-05-23T00:19:00,atd,19.11
2023-05-23T00:20:00,atd,16.79
2023-05-23T00:21:00,atd,17.90
2023-05-23T00:22:00,atd,17.16
2023-05-23T00:23:00,atd,18.48
2023-05-23T00:24:00,atd,21.36
2023-05-23T00:25:00,atd,20.91
2023-05-23T00:26:00,atd,35.21
2023-05-23T00:27:00,atd,37.66
2023-05-23T00:28:00,atd,34.03
2023-05-23T00:29:00,atd,32.65
2023-05-23T00:30:00,atd,21.26
2023-05-23T00:31:00,atd,16.55
2023-05-23T00:32:00,atd,25.20
2023-05-23T00:33:00,atd,17.77
2023-05-23T00:34:00,atd,18.35
2023-05-23T00:35:00,atd,18.50
2023-05-23T00:36:00,atd,20.04
2023-05-23T00:37:00,atd,18.62
2023-05-23T00:38:00,atd,17.07
2023-05-23T00:39:00,atd,15.10
2023-05-23T00:40:00,atd,18.40
2023-05-23T00:41:00,atd,17.86
2023-05-23T00:42:00,atd,21.55
2023-05-23T00:43:00,atd,18.84
2023-05-23T00:44:00,atd,18.23
2023-05-23T00:45:00,atd,20.78
2023-05-23T00:46:00,atd,17.96
2023-05-23T00:47:00,atd,16.53
2023-05-23T00:48:00,atd,19.06
2023-05-23T00:49:00,atd,17.50
2023-05-23T00:50:00,atd,19.01
2023-05-23T00:51:00,atd,23.22
2023-05-23T00:52:00,atd,19.74
2023-05-23T00:53:00,atd,19.54
2023-05-23T00:54:00,atd,22.34
2023-05-23T00:55:00,atd,21.70
2023-05-23T00:56:00,atd,22.39
2023-05-23T00:57:00,atd,21.77
2023-05-23T00:58:00,atd,18.61
2023-05-23T00:59:00,atd,19.59
2023-05-23T01:00:00,atd,17.71
2023-05-23T01:01:00,atd,17.83
2023-05-23T01:02:00,atd,16.91
2023-05-23T01:03:00,atd,17.92
2023-05-23T01:04:00,atd,16.28
2023-05-23T01:05:00,atd,20.33
2023-05-23T01:06:00,atd,33.05
2023-05-23T01:07:00,atd,23.99
2023-05-23T01:08:00,atd,23.91
2023-05-23T01:09:00,atd,21.86
2023-05-23T01:10:00,atd,22.44
2023-05-23T01:11:00,atd,17.92
2023-05-23T01:12:00,atd,20.59
2023-05-23T01:13:00,atd,18.57
2023-05-23T01:14:00,atd,18.81
2023-05-23T01:15:00,atd,21.66
2023-05-23T01:16:00,atd,18.88
2023-05-23T01:17:00,atd,16.84
2023-05-23T01:18:00,atd,14.93
2023-05-23T01:19:00,atd,16.54
2023-05-23T01:20:00,atd,20.88
2023-05-23T01:21:00,atd,20.93
2023-05-23T01:22:00,atd,20.75
2023-05-23T01:23:00,atd,19.13
2023-05-23T01:24:00,atd,17.66
2023-05-23T01:25:00,atd,29.25
2023-05-23T01:26:00,atd,16.35
2023-05-23T01:27:00,atd,20.97
2023-05-23T01:28:00,atd,18.72
2023-05-23T01:29:00,atd,17.34
2023-05-23T01:30:00,atd,17.43
2023-05-23T01:31:00,atd,15.77
2023-05-23T01:32:00,atd,18.80
2023-05-23T01:33:00,atd,16.11
2023-05-23T01:34:00,atd,21.64
2023-05-23T01:35:00,atd,21.83
2023-05-23T01:36:00,atd,19.11
2023-05-23T01:37:00,atd,20.55
2023-05-23T01:38:00,atd,19.62
2023-05-23T01:39:00,atd,18.75
2023-05-23T01:40:00,atd,21.55
2023-05-23T01:41:00,atd,22.49
2023-05-23T01:42:00,atd,21.09
2023-05-23T01:43:00,atd,20.92
2023-05-23T01:44:00,atd,31.14
2023-05-23T01:45:00,atd,17.82
2023-05-23T01:46:00,atd,25.16
2023-05-23T01:47:00,atd,20.99
2023-05-23T01:48:00,atd,22.68
2023-05-23T01:49:00,atd,22.10
2023-05-23T01:50:00,atd,23.03
2023-05-23T01:51:00,atd,21.28
2023-05-23T01:52:00,atd,21.25
2023-05-23T01:53:00,atd,23.54
2023-05-23T01:54:00,atd,22.83
2023-05-23T01:55:00,atd,23.38
2023-05-23T01:56:00,atd,20.26
2023-05-23T01:57:00,atd,21.40
2023-05-23T01:58:00,atd,19.32
2023-05-23T01:59:00,atd,23.21
2023-05-23T02:00:00,atd,21.19
2023-05-23T02:01:00,atd,23.49
2023-05-23T02:02:00,atd,21.93
2023-05-23T02:03:00,atd,35.50
2023-05-23T02:04:00,atd,22.41
2023-05-23T02:05:00,atd,22.58
2023-05-23T02:06:00,atd,24.15
2023-05-23T02:07:00,atd,24.15
2023-05-23T02:08:00,atd,21.59
2023-05-23T02:09:00,atd,20.14
2023-05-23T02:10:00,atd,17.47
2023-05-23T02:11:00,atd,16.37
2023-05-23T02:12:00,atd,18.09
2023-05-23T02:13:00,atd,18.63
2023-05-23T02:14:00,atd,20.04
2023-05-23T02:15:00,atd,17.32
2023-05-23T02:16:00,atd,17.62
2023-05-23T02:17:00,atd,19.71
2023-05-23T02:18:00,atd,21.71
2023-05-23T02:19:00,atd,21.41
2023-05-23T02:20:00,atd,21.40
2023-05-23T02:21:00,atd,22.99
2023-05-23T02:22:00,atd,19.23
2023-05-23T02:23:00,atd,22.37
2023-05-23T02:24:00,atd,17.65
2023-05-23T02:25:00,atd,19.43
2023-05-23T02:26:00,atd,23.44
2023-05-23T02:27:00,atd,19.00
2023-05-23T02:28:00,atd,20.68
2023-05-23T02:29:00,atd,19.16
2023-05-23T02:30:00,atd,19.21
2023-05-23T02:31:00,atd,25.36
2023-05-23T02:32:00,atd,22.76
2023-05-23T02:33:00,atd,21.32
2023-05-23T02:34:00,atd,20.21
2023-05-23T02:35:00,atd,17.09
2023-05-23T02:36:00,atd,18.68
2023-05-23T02:37:00,atd,17.11
2023-05-23T02:38:00,atd,16.95
2023-05-23T02:39:00,atd,17.72
2023-05-23T02:40:00,atd,17.21
2023-05-23T02:41:00,atd,31.09
2023-05-23T02:42:00,atd,19.73
2023-05-23T02:43:00,atd,21.63
2023-05-23T02:44:00,atd,22.22
2023-05-23T02:45:00,atd,19.76
2023-05-23T02:46:00,atd,20.59
2023-05-23T02:47:00,atd,18.43
2023-05-23T02:48:00,atd,29.11
2023-05-23T02:49:00,atd,25.81
2023-05-23T02:50:00,atd,25.38
2023-05-23T02:51:00,atd,24.90
2023-05-23T02:52:00,atd,18.38
2023-05-23T02:53:00,atd,15.52
2023-05-23T02:54:00,atd,15.69
2023-05-23T02:55:00,atd,17.50
2023-05-23T02:56:00,atd,22.93
2023-05-23T02:57:00,atd,24.22
2023-05-23T02:58:00,atd,21.81
2023-05-23T02:59:00,atd,20.24
2023-05-23T03:00:00,atd,31.37
2023-05-23T03:01:00,atd,20.02
2023-05-23T03:02:00,atd,20.69
2023-05-23T03:03:00,atd,19.99
2023-05-23T03:04:00,atd,19.43
2023-05-23T03:05:00,atd,20.96
2023-05-23T03:06:00,atd,20.14
2023-05-23T03:07:00,atd,19.81
2023-05-23T03:08:00,atd,16.26
2023-05-23T03:09:00,atd,17.11
2023-05-23T03:10:00,atd,20.07
2023-05-23T03:11:00,atd,22.49
2023-05-23T03:12:00,atd,20.90
2023-05-23T03:13:00,atd,22.05
2023-05-23T03:14:00,atd,18.21
2023-05-23T03:15:00,atd,19.20
2023-05-23T03:16:00,atd,17.63
2023-05-23T03:17:00,atd,13.57
2023-05-23T03:18:00,atd,13.41
2023-05-23T03:19:00,atd,28.00
2023-05-23T03:20:00,atd,18.51
2023-05-23T03:21:00,atd,19.81
2023-05-23T03:22:00,atd,18.83
2023-05-23T03:23:00,atd,21.45
2023-05-23T03:24:00,atd,22.56
2023-05-23T03:25:00,atd,17.22
2023-05-23T03:26:00,atd,19.64
2023-05-23T03:27:00,atd,18.10
2023-05-23T03:28:00,atd,17.45
2023-05-23T03:29:00,atd,16.51
2023-05-23T03:30:00,atd,16.71
2023-05-23T03:31:00,atd,19.13
2023-05-23T03:32:00,atd,21.82
2023-05-23T03:33:00,atd,18.12
2023-05-23T03:34:00,atd,16.53
2023-05-23T03:35:00,atd,17.24
2023-05-23T03:36:00,atd,21.05
2023-05-23T03:37:00,atd,19.90
2023-05-23T03:38:00,atd,19.38
2023-05-23T03:39:00,atd,18.94
2023-05-23T03:40:00,atd,28.25
2023-05-23T03:41:00,atd,14.37
2023-05-23T03:42:00,atd,16.42
2023-05-23T03:43:00,atd,15.79
2023-05-23T03:44:00,atd,16.27
2023-05-23T03:45:00,atd,19.29
2023-05-23T03:46:00,atd,16.86
2023-05-23T03:47:00,atd,15.91
2023-05-23T03:48:00,atd,19.91
2023-05-23T03:49:00,atd,35.20
2023-05-23T03:50:00,atd,33.13
2023-05-23T03:51:00,atd,32.48
2023-05-23T03:52:00,atd,32.75
2023-05-23T03:53:00,atd,18.17
2023-05-23T03:54:00,atd,17.09
2023-05-23T03:55:00,atd,20.83
2023-05-23T03:56:00,atd,21.61
2023-05-23T03:57:00,atd,19.59
2023-05-23T03:58:00,atd,17.92
2023-05-23T03:59:00,atd,21.24
2023-05-23T04:00:00,atd,20.09
2023-05-23T04:01:00,atd,32.32
2023-05-23T04:02:00,atd,19.15
2023-05-23T04:03:00,atd,19.29
2023-05-23T04:04:00,atd,17.58
2023-05-23T04:05:00,atd,17.98
2023-05-23T04:06:00,atd,17.76
2023-05-23T04:07:00,atd,17.31
2023-05-23T04:08:00,atd,18.86
2023-05-23T04:09:00,atd,17.01
2023-05-23T04:10:00,atd,20.98
2023-05-23T04:11:00,atd,18.14
2023-05-23T04:12:00,atd,18.02
2023-05-23T04:13:00,atd,17.81
2023-05-23T04:14:00,atd,19.02
2023-05-23T04:15:00,atd,17.64
2023-05-23T04:16:00,atd,21.70
2023-05-23T04:17:00,atd,17.64
2023-05-23T04:18:00,atd,20.97
2023-05-23T04:19:00,atd,18.23
2023-05-23T04:20:00,atd,16.53
2023-05-23T04:21:00,atd,15.93
2023-05-23T04:22:00,atd,18.37
2023-05-23T04:23:00,atd,21.34
2023-05-23T04:24:00,atd,21.00
2023-05-23T04:25:00,atd,24.92
2023-05-23T04:26:00,atd,21.62
2023-05-23T04:27:00,atd,19.13
2023-05-23T04:28:00,atd,18.56
2023-05-23T04:29:00,atd,27.10
2023-05-23T04:30:00,atd,23.06
2023-05-23T04:31:00,atd,23.50
2023-05-23T04:32:00,atd,20.35
2023-05-23T04:33:00,atd,17.23
2023-05-23T04:34:00,atd,17.06
2023-05-23T04:35:00,atd,17.65
2023-05-23T04:36:00,atd,16.75
2023-05-23T04:37:00,atd,15.85
2023-05-23T04:38:00,atd,17.48
2023-05-23T04:39:00,atd,21.14
2023-05-23T04:40:00,atd,22.66
2023-05-23T04:41:00,atd,31.10
2023-05-23T04:42:00,atd,21.45
2023-05-23T04:43:00,atd,24.58
2023-05-23T04:44:00,atd,24.04
2023-05-23T04:45:00,atd,23.14
2023-05-23T04:46:00,atd,20.51
2023-05-23T04:47:00,atd,19.28
2023-05-23T04:48:00,atd,22.20
2023-05-23T04:49:00,atd,16.65
2023-05-23T04:50:00,atd,15.15
2023-05-23T04:51:00,atd,15.79
2023-05-23T04:52:00,atd,17.10
2023-05-23T04:53:00,atd,17.91
2023-05-23T04:54:00,atd,16.88
2023-05-23T04:55:00,atd,17.77
2023-05-23T04:56:00,atd,21.02
2023-05-23T04:57:00,atd,22.60
2023-05-23T04:58:00,atd,17.98
2023-05-23T04:59:00,atd,17.64
2023-05-23T05:00:00,atd,16.83
2023-05-23T05:01:00,atd,30.13
2023-05-23T05:02:00,atd,18.34
2023-05-23T05:03:00,atd,18.08
2023-05-23T05:04:00,atd,18.45
2023-05-23T05:05:00,atd,18.86
2023-05-23T05:06:00,atd,17.17
2023-05-23T05:07:00,atd,16.29
2023-05-23T05:08:00,atd,15.36
2023-05-23T05:09:00,atd,17.22
2023-05-23T05:10:00,atd,21.38
2023-05-23T05:11:00,atd,19.27
2023-05-23T05:12:00,atd,18.54
2023-05-23T05:13:00,atd,17.37
2023-05-23T05:14:00,atd,15.97
2023-05-23T05:15:00,atd,19.25
2023-05-23T05:16:00,atd,16.20
2023-05-23T05:17:00,atd,14.45
2023-05-23T05:18:00,atd,15.84
2023-05-23T05:19:00,atd,15.50
2023-05-23T05:20:00,atd,15.35
2023-05-23T05:21:00,atd,13.05
2023-05-23T05:22:00,atd,17.77
2023-05-23T05:23:00,atd,16.72
2023-05-23T05:24:00,atd,17.31
2023-05-23T05:25:00,atd,20.02
2023-05-23T05:26:00,atd,15.92
2023-05-23T05:27:00,atd,16.07
2023-05-23T05:28:00,atd,19.10
2023-05-23T05:29:00,atd,15.18
2023-05-23T05:30:00,atd,15.56
2023-05-23T05:31:00,atd,20.58
2023-05-23T05:32:00,atd,22.45
2023-05-23T05:33:00,atd,25.55
2023-05-23T05:34:00,atd,19.64
2023-05-23T05:35:00,atd,21.51
2023-05-23T05:36:00,atd,24.46
2023-05-23T05:37:00,atd,24.43
2023-05-23T05:38:00,atd,22.81
2023-05-23T05:39:00,atd,20.80
2023-05-23T05:40:00,atd,17.77
2023-05-23T05:41:00,atd,20.01
2023-05-23T05:42:00,atd,21.59
2023-05-23T05:43:00,atd,19.49
2023-05-23T05:44:00,atd,19.79
2023-05-23T05:45:00,atd,22.57
2023-05-23T05:46:00,atd,23.28
2023-05-23T05:47:00,atd,21.43
2023-05-23T05:48:00,atd,20.19
2023-05-23T05:49:00,atd,22.28
2023-05-23T05:50:00,atd,21.95
2023-05-23T05:51:00,atd,24.21
2023-05-23T05:52:00,atd,22.05
2023-05-23T05:53:00,atd,19.78
2023-05-23T05:54:00,atd,24.52
2023-05-23T05:55:00,atd,25.45
2023-05-23T05:56:00,atd,23.11
2023-05-23T05:57:00,atd,22.94
2023-05-23T05:58:00,atd,26.07
2023-05-23T05:59:00,atd,24.07
2023-05-23T06:00:00,atd,26.06
2023-05-23T06:01:00,atd,23.59
2023-05-23T06:02:00,atd,25.47
2023-05-23T06:03:00,atd,26.98
2023-05-23T06:04:00,atd,26.58
2023-05-23T06:05:00,atd,22.89
2023-05-23T06:06:00,atd,18.16
2023-05-23T06:07:00,atd,18.41
2023-05-23T06:08:00,atd,19.25
2023-05-23T06:09:00,atd,27.87
2023-05-23T06:10:00,atd,22.18
2023-05-23T06:11:00,atd,22.48
2023-05-23T06:12:00,atd,23.49
2023-05-23T06:13:00,atd,33.76
2023-05-23T06:14:00,atd,33.99
2023-05-23T06:15:00,atd,40.94
2023-05-23T06:16:00,atd,35.83
2023-05-23T06:17:00,atd,25.52
2023-05-23T06:18:00,atd,21.91
2023-05-23T06:19:00,atd,23.04
2023-05-23T06:20:00,atd,19.69
2023-05-23T06:21:00,atd,22.19
2023-05-23T06:22:00,atd,19.46
2023-05-23T06:23:00,atd,20.91
2023-05-23T06:24:00,atd,18.90
2023-05-23T06:25:00,atd,22.73
2023-05-23T06:26:00,atd,21.03
2023-05-23T06:27:00,atd,20.02
2023-05-23T06:28:00,atd,20.83
2023-05-23T06:29:00,atd,19.69
2023-05-23T06:30:00,atd,21.60
2023-05-23T06:31:00,atd,20.47
2023-05-23T06:32:00,atd,33.87
2023-05-23T06:33:00,atd,24.78
2023-05-23T06:34:00,atd,24.34
2023-05-23T06:35:00,atd,25.79
2023-05-23T06:36:00,atd,24.29
2023-05-23T06:37:00,atd,25.72
2023-05-23T06:38:00,atd,23.73
2023-05-23T06:39:00,atd,24.54
2023-05-23T06:40:00,atd,22.38
2023-05-23T06:41:00,atd,23.67
2023-05-23T06:42:00,atd,26.87
2023-05-23T06:43:00,atd,28.58
2023-05-23T06:44:00,atd,27.71
2023-05-23T06:45:00,atd,21.92
2023-05-23T06:46:00,atd,22.19
2023-05-23T06:47:00,atd,23.34
2023-05-23T06:48:00,atd,21.91
2023-05-23T06:49:00,atd,34.14
2023-05-23T06:50:00,atd,21.04
2023-05-23T06:51:00,atd,21.91
2023-05-23T06:52:00,atd,25.50
2023-05-23T06:53:00,atd,24.83
2023-05-23T06:54:00,atd,24.22
2023-05-23T06:55:00,atd,24.82
2023-05-23T06:56:00,atd,21.11
2023-05-23T06:57:00,atd,19.27
2023-05-23T06:58:00,atd,22.14
2023-05-23T06:59:00,atd,21.15
2023-05-23T07:00:00,atd,22.89
2023-05-23T07:01:00,atd,21.54
2023-05-23T07:02:00,atd,20.49
2023-05-23T07:03:00,atd,20.66
2023-05-23T07:04:00,atd,22.57
2023-05-23T07:05:00,atd,23.55
2023-05-23T07:06:00,atd,23.68
2023-05-23T07:07:00,atd,28.83
2023-05-23T07:08:00,atd,19.35
2023-05-23T07:09:00,atd,21.50
2023-05-23T07:10:00,atd,20.18
2023-05-23T07:11:00,atd,19.39
2023-05-23T07:12:00,atd,20.75
2023-05-23T07:13:00,atd,21.64
2023-05-23T07:14:00,atd,21.59
2023-05-23T07:15:00,atd,23.01
2023-05-23T07:16:00,atd,24.57
2023-05-23T07:17:00,atd,38.81
2023-05-23T07:18:00,atd,38.12
2023-05-23T07:19:00,atd,37.12
2023-05-23T07:20:00,atd,35.63
2023-05-23T07:21:00,atd,20.77
2023-05-23T07:22:00,atd,31.91
2023-05-23T07:23:00,atd,43.32
2023-05-23T07:24:00,atd,42.22
2023-05-23T07:25:00,atd,24.48
2023-05-23T07:26:00,atd,20.28
2023-05-23T07:27:00,atd,20.97
2023-05-23T07:28:00,atd,22.30
2023-05-23T07:29:00,atd,23.40
2023-05-23T07:30:00,atd,21.07
2023-05-23T07:31:00,atd,22.29
2023-05-23T07:32:00,atd,26.15
2023-05-23T07:33:00,atd,27.77
2023-05-23T07:34:00,atd,25.38
2023-05-23T07:35:00,atd,25.72
2023-05-23T07:36:00,atd,25.26
2023-05-23T07:37:00,atd,27.91
2023-05-23T07:38:00,atd,26.59
2023-05-23T07:39:00,atd,27.77
2023-05-23T07:40:00,atd,32.60
2023-05-23T07:41:00,atd,25.84
2023-05-23T07:42:00,atd,26.53
2023-05-23T07:43:00,atd,23.98
2023-05-23T07:44:00,atd,23.70
2023-05-23T07:45:00,atd,24.50
2023-05-23T07:46:00,atd,26.15
2023-05-23T07:47:00,atd,26.16
2023-05-23T07:48:00,atd,24.04
2023-05-23T07:49:00,atd,26.94
2023-05-23T07:50:00,atd,25.67
2023-05-23T07:51:00,atd,27.71
2023-05-23T07:52:00,atd,25.28
2023-05-23T07:53:00,atd,26.61
2023-05-23T07:54:00,atd,28.82
2023-05-23T07:55:00,atd,26.51
2023-05-23T07:56:00,atd,34.18
2023-05-23T07:57:00,atd,25.38
2023-05-23T07:58:00,atd,25.80
2023-05-23T07:59:00,atd,25.75
2023-05-23T08:00:00,atd,25.85
2023-05-23T08:01:00,atd,30.00
2023-05-23T08:02:00,atd,28.26
2023-05-23T08:03:00,atd,27.83
2023-05-23T08:04:00,atd,27.26
2023-05-23T08:05:00,atd,29.80
2023-05-23T08:06:00,atd,27.26
2023-05-23T08:07:00,atd,28.23
2023-05-23T08:08:00,atd,29.54
2023-05-23T08:09:00,atd,30.63
2023-05-23T08:10:00,atd,31.40
2023-05-23T08:11:00,atd,32.72
2023-05-23T08:12:00,atd,30.93
2023-05-23T08:13:00,atd,30.47
2023-05-23T08:14:00,atd,30.50
2023-05-23T08:15:00,atd,29.25
2023-05-23T08:16:00,atd,28.77
2023-05-23T08:17:00,atd,26.25
2023-05-23T08:18:00,atd,29.15
2023-05-23T08:19:00,atd,24.04
2023-05-23T08:20:00,atd,23.58
2023-05-23T08:21:00,atd,24.72
2023-05-23T08:22:00,atd,32.83
2023-05-23T08:23:00,atd,26.29
2023-05-23T08:24:00,atd,27.11
2023-05-23T08:25:00,atd,24.77
2023-05-23T08:26:00,atd,22.55
2023-05-23T08:27:00,atd,27.97
2023-05-23T08:28:00,atd,29.10
2023-05-23T08:29:00,atd,28.88
2023-05-23T08:30:00,atd,27.72
2023-05-23T08:31:00,atd,38.63
2023-05-23T08:32:00,atd,24.84
2023-05-23T08:33:00,atd,24.85
2023-05-23T08:34:00,atd,23.29
2023-05-23T08:35:00,atd,23.96
2023-05-23T08:36:00,atd,25.30
2023-05-23T08:37:00,atd,25.70
2023-05-23T08:38:00,atd,25.60
2023-05-23T08:39:00,atd,24.85
2023-05-23T08:40:00,atd,23.59
2023-05-23T08:41:00,atd,30.90
2023-05-23T08:42:00,atd,27.30
2023-05-23T08:43:00,atd,28.44
2023-05-23T08:44:00,atd,28.11
2023-05-23T08:45:00,atd,27.90
2023-05-23T08:46:00,atd,26.58
2023-05-23T08:47:00,atd,28.10
2023-05-23T08:48:00,atd,30.81
2023-05-23T08:49:00,atd,32.91
2023-05-23T08:50:00,atd,33.45
2023-05-23T08:51:00,atd,31.73
2023-05-23T08:52:00,atd,32.85
2023-05-23T08:53:00,atd,32.37
2023-05-23T08:54:00,atd,38.75
2023-05-23T08:55:00,atd,43.02
2023-05-23T08:56:00,atd,39.97
2023-05-23T08:57:00,atd,65.94
2023-05-23T08:58:00,atd,73.89
2023-05-23T08:59:00,atd,73.38
2023-05-23T09:00:00,atd,76.52
2023-05-23T09:01:00,atd,76.82
2023-05-23T09:02:00,atd,82.31
2023-05-23T09:03:00,atd,33.04
2023-05-23T09:04:00,atd,32.53
2023-05-23T09:05:00,atd,34.92
2023-05-23T09:06:00,atd,35.56
2023-05-23T09:07:00,atd,36.19
2023-05-23T09:08:00,atd,37.45
2023-05-23T09:09:00,atd,33.68
2023-05-23T09:10:00,atd,41.56
2023-05-23T09:11:00,atd,37.12
2023-05-23T09:12:00,atd,37.11
2023-05-23T09:13:00,atd,33.10
2023-05-23T09:14:00,atd,44.35
2023-05-23T09:15:00,atd,39.21
2023-05-23T09:16:00,atd,37.38
2023-05-23T09:17:00,atd,71.82
2023-05-23T09:18:00,atd,71.44
2023-05-23T09:19:00,atd,88.56
2023-05-23T09:20:00,atd,84.20
2023-05-23T09:21:00,atd,81.09
2023-05-23T09:22:00,atd,34.17
2023-05-23T09:23:00,atd,35.77
2023-05-23T09:24:00,atd,35.30
2023-05-23T09:25:00,atd,38.78
2023-05-23T09:26:00,atd,38.36
2023-05-23T09:27:00,atd,37.01
2023-05-23T09:28:00,atd,36.54
2023-05-23T09:29:00,atd,36.55
2023-05-23T09:30:00,atd,33.39
2023-05-23T09:31:00,atd,31.57
2023-05-23T09:32:00,atd,32.64
2023-05-23T09:33:00,atd,31.98
2023-05-23T09:34:00,atd,33.37
2023-05-23T09:35:00,atd,33.51
2023-05-23T09:36:00,atd,59.24
2023-05-23T09:37:00,atd,64.89
2023-05-23T09:38:00,atd,66.44
2023-05-23T09:39:00,atd,65.21
2023-05-23T09:40:00,atd,71.34
2023-05-23T09:41:00,atd,68.17
2023-05-23T09:42:00,atd,37.92
2023-05-23T09:43:00,atd,35.34
2023-05-23T09:44:00,atd,34.01
2023-05-23T09:45:00,atd,29.83
2023-05-23T09:46:00,atd,31.02
2023-05-23T09:47:00,atd,27.82
2023-05-23T09:48:00,atd,27.58
2023-05-23T09:49:00,atd,32.32
2023-05-23T09:50:00,atd,30.92
2023-05-23T09:51:00,atd,31.24
2023-05-23T09:52:00,atd,45.27
2023-05-23T09:53:00,atd,31.88
2023-05-23T09:54:00,atd,73.05
2023-05-23T09:55:00,atd,78.41
2023-05-23T09:56:00,atd,80.06
2023-05-23T09:57:00,atd,79.14
2023-05-23T09:58:00,atd,83.33
2023-05-23T09:59:00,atd,94.02
2023-05-23T10:00:00,atd,45.84
2023-05-23T10:01:00,atd,46.36
2023-05-23T10:02:00,atd,45.04
2023-05-23T10:03:00,atd,44.73
2023-05-23T10:04:00,atd,46.47
2023-05-23T10:05:00,atd,32.65
2023-05-23T10:06:00,atd,32.76
2023-05-23T10:07:00,atd,30.31
2023-05-23T10:08:00,atd,33.98
2023-05-23T10:09:00,atd,34.72
2023-05-23T10:10:00,atd,32.47
2023-05-23T10:11:00,atd,68.81
2023-05-23T10:12:00,atd,70.29
2023-05-23T10:13:00,atd,72.05
2023-05-23T10:14:00,atd,70.91
2023-05-23T10:15:00,atd,67.71
2023-05-23T10:16:00,atd,69.33
2023-05-23T10:17:00,atd,70.06
2023-05-23T10:18:00,atd,33.46
2023-05-23T10:19:00,atd,32.51
2023-05-23T10:20:00,atd,32.48
2023-05-23T10:21:00,atd,33.97
2023-05-23T10:22:00,atd,33.57
2023-05-23T10:23:00,atd,35.03
2023-05-23T10:24:00,atd,36.13
2023-05-23T10:25:00,atd,36.33
2023-05-23T10:26:00,atd,37.26
2023-05-23T10:27:00,atd,78.95
2023-05-23T10:28:00,atd,82.81
2023-05-23T10:29:00,atd,84.01
2023-05-23T10:30:00,atd,81.65
2023-05-23T10:31:00,atd,85.94
2023-05-23T10:32:00,atd,85.95
2023-05-23T10:33:00,atd,82.98
2023-05-23T10:34:00,atd,83.39
2023-05-23T10:35:00,atd,37.34
2023-05-23T10:36:00,atd,39.67
2023-05-23T10:37:00,atd,36.26
2023-05-23T10:38:00,atd,37.47
2023-05-23T10:39:00,atd,36.23
2023-05-23T10:40:00,atd,36.86
2023-05-23T10:41:00,atd,41.73
2023-05-23T10:42:00,atd,38.93
2023-05-23T10:43:00,atd,53.78
2023-05-23T10:44:00,atd,79.59
2023-05-23T10:45:00,atd,79.37
2023-05-23T10:46:00,atd,79.39
2023-05-23T10:47:00,atd,76.08
2023-05-23T10:48:00,atd,74.46
2023-05-23T10:49:00,atd,75.39
2023-05-23T10:50:00,atd,74.25
2023-05-23T10:51:00,atd,75.39
2023-05-23T10:52:00,atd,72.97
2023-05-23T10:53:00,atd,73.96
2023-05-23T10:54:00,atd,35.68
2023-05-23T10:55:00,atd,39.98
2023-05-23T10:56:00,atd,39.35
2023-05-23T10:57:00,atd,41.52
2023-05-23T10:58:00,atd,41.94
2023-05-23T10:59:00,atd,42.77
2023-05-23T11:00:00,atd,55.40
2023-05-23T11:01:00,atd,39.25
2023-05-23T11:02:00,atd,76.07
2023-05-23T11:03:00,atd,90.70
2023-05-23T11:04:00,atd,90.46
2023-05-23T11:05:00,atd,90.37
2023-05-23T11:06:00,atd,90.31
2023-05-23T11:07:00,atd,90.51
2023-05-23T11:08:00,atd,76.48
2023-05-23T11:09:00,atd,76.50
2023-05-23T11:10:00,atd,78.98
2023-05-23T11:11:00,atd,82.13
2023-05-23T11:12:00,atd,80.40
2023-05-23T11:13:00,atd,36.01
2023-05-23T11:14:00,atd,39.00
2023-05-23T11:15:00,atd,37.76
2023-05-23T11:16:00,atd,37.23
2023-05-23T11:17:00,atd,49.26
2023-05-23T11:18:00,atd,40.23
2023-05-23T11:19:00,atd,39.23
2023-05-23T11:20:00,atd,36.42
2023-05-23T11:21:00,atd,72.37
2023-05-23T11:22:00,atd,75.87
2023-05-23T11:23:00,atd,75.98
2023-05-23T11:24:00,atd,75.25
2023-05-23T11:25:00,atd,74.81
2023-05-23T11:26:00,atd,80.15
2023-05-23T11:27:00,atd,74.00
2023-05-23T11:28:00,atd,81.26
2023-05-23T11:29:00,atd,80.28
2023-05-23T11:30:00,atd,81.18
2023-05-23T11:31:00,atd,83.05
2023-05-23T11:32:00,atd,34.10
2023-05-23T11:33:00,atd,44.00
2023-05-23T11:34:00,atd,32.04
2023-05-23T11:35:00,atd,36.55
2023-05-23T11:36:00,atd,35.27
2023-05-23T11:37:00,atd,34.08
2023-05-23T11:38:00,atd,33.99
2023-05-23T11:39:00,atd,73.02
2023-05-23T11:40:00,atd,77.13
2023-05-23T11:41:00,atd,80.72
2023-05-23T11:42:00,atd,76.20
2023-05-23T11:43:00,atd,77.00
2023-05-23T11:44:00,atd,80.66
2023-05-23T11:45:00,atd,82.05
2023-05-23T11:46:00,atd,77.91
2023-05-23T11:47:00,atd,77.87
2023-05-23T11:48:00,atd,76.60
2023-05-23T11:49:00,atd,35.71
2023-05-23T11:50:00,atd,46.86
2023-05-23T11:51:00,atd,36.92
2023-05-23T11:52:00,atd,37.95
2023-05-23T11:53:00,atd,41.28
2023-05-23T11:54:00,atd,36.32
2023-05-23T11:55:00,atd,36.07
2023-05-23T11:56:00,atd,33.68
2023-05-23T11:57:00,atd,66.55
2023-05-23T11:58:00,atd,80.17
2023-05-23T11:59:00,atd,76.47
2023-05-23T12:00:00,atd,77.16
2023-05-23T12:01:00,atd,75.42
2023-05-23T12:02:00,atd,75.99
2023-05-23T12:03:00,atd,73.37
2023-05-23T12:04:00,atd,76.65
2023-05-23T12:05:00,atd,78.50
2023-05-23T12:06:00,atd,89.92
2023-05-23T12:07:00,atd,74.91
2023-05-23T12:08:00,atd,76.82
2023-05-23T12:09:00,atd,76.12
2023-05-23T12:10:00,atd,75.88
2023-05-23T12:11:00,atd,38.20
2023-05-23T12:12:00,atd,32.85
2023-05-23T12:13:00,atd,39.61
2023-05-23T12:14:00,atd,42.07
2023-05-23T12:15:00,atd,40.12
2023-05-23T12:16:00,atd,41.05
2023-05-23T12:17:00,atd,31.48
2023-05-23T12:18:00,atd,86.74
2023-05-23T12:19:00,atd,81.36
2023-05-23T12:20:00,atd,79.75
2023-05-23T12:21:00,atd,78.04
2023-05-23T12:22:00,atd,79.92
2023-05-23T12:23:00,atd,89.50
2023-05-23T12:24:00,atd,83.02
2023-05-23T12:25:00,atd,80.33
2023-05-23T12:26:00,atd,82.63
2023-05-23T12:27:00,atd,82.55
2023-05-23T12:28:00,atd,35.43
2023-05-23T12:29:00,atd,31.27
2023-05-23T12:30:00,atd,31.63
2023-05-23T12:31:00,atd,31.05
2023-05-23T12:32:00,atd,31.07
2023-05-23T12:33:00,atd,32.87
2023-05-23T12:34:00,atd,35.75
2023-05-23T12:35:00,atd,33.82
2023-05-23T12:36:00,atd,75.50
2023-05-23T12:37:00,atd,79.02
2023-05-23T12:38:00,atd,84.16
2023-05-23T12:39:00,atd,81.69
2023-05-23T12:40:00,atd,93.82
2023-05-23T12:41:00,atd,82.69
2023-05-23T12:42:00,atd,84.69
2023-05-23T12:43:00,atd,83.42
2023-05-23T12:44:00,atd,31.03
2023-05-23T12:45:00,atd,31.91
2023-05-23T12:46:00,atd,30.82
2023-05-23T12:47:00,atd,30.91
2023-05-23T12:48:00,atd,33.33
2023-05-23T12:49:00,atd,30.95
2023-05-23T12:50:00,atd,34.18
2023-05-23T12:51:00,atd,33.46
2023-05-23T12:52:00,atd,66.34
2023-05-23T12:53:00,atd,71.43
2023-05-23T12:54:00,atd,70.13
2023-05-23T12:55:00,atd,70.16
2023-05-23T12:56:00,atd,72.18
2023-05-23T12:57:00,atd,73.00
2023-05-23T12:58:00,atd,71.67
2023-05-23T12:59:00,atd,69.16
2023-05-23T13:00:00,atd,72.32
2023-05-23T13:01:00,atd,73.17
2023-05-23T13:02:00,atd,68.15
2023-05-23T13:03:00,atd,70.15
2023-05-23T13:04:00,atd,69.46
2023-05-23T13:05:00,atd,72.49
2023-05-23T13:06:00,atd,70.20
2023-05-23T13:07:00,atd,71.58
2023-05-23T13:08:00,atd,32.76
2023-05-23T13:09:00,atd,33.18
2023-05-23T13:10:00,atd,29.66
2023-05-23T13:11:00,atd,30.20
2023-05-23T13:12:00,atd,30.40
2023-05-23T13:13:00,atd,43.11
2023-05-23T13:14:00,atd,34.53
2023-05-23T13:15:00,atd,77.99
2023-05-23T13:16:00,atd,79.20
2023-05-23T13:17:00,atd,81.51
2023-05-23T13:18:00,atd,75.91